Location: Valdosta
(30.8330°N, 83.2790°W)
Time: 03:52:49
(UTC-04:00)

Amateur Radio Satellites - All Passes

Search period start: 23 July 2014 03:22
Search period end: 24 July 2014 03:22
Location: Valdosta, 30.8330°N, 83.2790°W

Satellite Date Start Highest point End Downlink Frequencies (MHz)
Time Altitude Azimuth
JAS-1B 23 Jul 03:26:32 03:35:03 38° 95° (E) 03:42:27 435.800 - 435.900 CW/SSB
AO-27 23 Jul 03:35:12 03:40:23 71° 102° (ESE) 03:45:32 436.795 MHz FM
OPAL 23 Jul 03:36:05 03:38:49 15° 65° (ENE) 03:41:32 ?
Uribyol 2 23 Jul 03:39:00 03:44:10 81° 103° (ESE) 03:49:19 436.500 FM
UOSAT-12 23 Jul 03:40:47 03:43:02 13° 253° (WSW) 03:45:17 437.025 FM, 437.400 FM
Sapphire 23 Jul 03:44:29 03:49:03 28° 302° (WNW) 03:53:38 437.095 MHz 1200 baud AX-25 AFSK
AO-Echo 23 Jul 03:53:12 03:58:18 72° 284° (WNW) 04:03:12 ?
PCSat 23 Jul 04:21:14 04:23:39 13° 308° (NW) 04:26:04 145.825 MHz
Oscar 19 23 Jul 04:24:41 04:27:48 16° 293° (WNW) 04:30:55 437.125 CW, 437.150 USB
TMSAT-1 23 Jul 04:39:26 04:44:45 83° 103° (ESE) 04:50:02 436.925 FM
ITAMSAT 1 23 Jul 04:58:44 05:02:00 17° 293° (WNW) 05:05:15 435.822 SSB
Gurwin Techsat 1B 23 Jul 04:59:45 05:04:44 43° 287° (WNW) 05:09:42 435.225 FM
AO-7 23 Jul 05:09:19 05:16:48 36° 100° (E) 05:24:12 29.400 - 29.500 MHz
OPAL 23 Jul 05:12:28 05:17:15 48° 258° (WSW) 05:22:02 ?
JAS-1B 23 Jul 05:16:41 05:25:27 44° 293° (WNW) 05:33:09 435.800 - 435.900 CW/SSB
AO-27 23 Jul 05:17:57 05:19:14 11° 296° (WNW) 05:20:30 436.795 MHz FM
Uosat F 23 Jul 05:44:11 05:49:13 79° 103° (ESE) 05:54:12 435.120 FM
PANSAT 23 Jul 06:40:05 06:41:38 12° 155° (SSE) 06:43:11 not established
AO-7 23 Jul 07:01:52 07:09:29 42° 294° (WNW) 07:17:04 29.400 - 29.500 MHz
JAS-2 23 Jul 07:19:42 07:25:19 40° 97° (E) 07:30:23 435.800 - 435.900 CW/SSB, 435.910 FM
STRAND 1 23 Jul 07:24:29 07:29:34 63° 75° (ENE) 07:34:39 ?
KITSAT 1 23 Jul 07:36:21 07:44:13 59° 111° (ESE) 07:52:07 435.175 FM
Hamsat 23 Jul 07:36:39 07:40:57 81° 283° (WNW) 07:45:16 145.90 MHz
Lituanica SAT-1 23 Jul 07:46:13 07:47:13 12° 38° (NE) 07:48:13 437.275 MHz beacon
SO-67 23 Jul 07:48:03 07:49:49 13° 95° (E) 07:51:35 435.3500 MHz FM
PANSAT 23 Jul 08:17:50 08:21:22 35° 165° (SSE) 08:24:54 not established
MaSat-1 23 Jul 08:23:29 08:27:20 20° 58° (ENE) 08:31:03 437.345 MHz
Saudisat 1A 23 Jul 08:30:41 08:32:46 13° 108° (ESE) 08:34:52 436.775 MHz
ISS 23 Jul 08:41:37 08:42:41 11° 32° (NNE) 08:43:44 145.800 FM
Oscar 10/S400 23 Jul 08:42:08 09:51:48 21° 263° (W) 12:04:15 145.825 - 145.975 CW/USB, Beacon 145.810 USB
JAS-2 23 Jul 09:05:33 09:09:59 22° 295° (WNW) 09:14:06 435.800 - 435.900 CW/SSB, 435.910 FM
STRAND 1 23 Jul 09:07:39 09:09:03 11° 267° (W) 09:10:27 ?
HO-68 23 Jul 09:08:03 09:10:55 13° 93° (E) 09:13:47 435.675 MHz FM
Lituanica SAT-1 23 Jul 09:18:32 09:20:04 17° 231° (SW) 09:21:35 437.275 MHz beacon
SO-67 23 Jul 09:20:05 09:22:50 22° 287° (WNW) 09:25:35 435.3500 MHz FM
KITSAT 1 23 Jul 09:33:21 09:39:58 27° 308° (NW) 09:46:38 435.175 FM
PANSAT 23 Jul 09:57:33 10:01:21 60° 178° (S) 10:05:09 not established
MaSat-1 23 Jul 09:59:54 10:04:55 43° 254° (WSW) 10:09:35 437.345 MHz
Saudisat 1A 23 Jul 10:07:43 10:11:56 44° 301° (WNW) 10:16:10 436.775 MHz
Oscar 11 23 Jul 10:16:16 10:18:37 14° 94° (E) 10:20:57 145.825 FM, Beacon 2401.500 USB
ISS 23 Jul 10:16:24 10:19:45 73° 227° (SW) 10:23:05 145.800 FM
HO-68 23 Jul 10:52:01 10:59:11 83° 286° (WNW) 11:06:19 435.675 MHz FM
PCSat 23 Jul 11:28:53 11:32:45 20° 55° (NE) 11:36:36 145.825 MHz
PANSAT 23 Jul 11:37:41 11:41:24 47° 190° (S) 11:45:05 not established
Oscar 11 23 Jul 11:50:55 11:54:51 35° 287° (WNW) 11:58:47 145.825 FM, Beacon 2401.500 USB
FUNcube-1 23 Jul 11:54:17 11:58:27 79° 102° (ESE) 12:02:38 145.950 - 145.970 MHz USB
Sapphire 23 Jul 12:36:53 12:42:19 76° 65° (ENE) 12:47:42 437.095 MHz 1200 baud AX-25 AFSK
HO-68 23 Jul 12:43:21 12:45:48 12° 302° (WNW) 12:48:15 435.675 MHz FM
PCSat 23 Jul 13:11:11 13:16:21 46° 250° (WSW) 13:21:29 145.825 MHz
PANSAT 23 Jul 13:18:25 13:21:14 19° 202° (SSW) 13:24:02 not established
SO-50 23 Jul 13:31:12 13:34:07 17° 109° (ESE) 13:37:04 436.795 FM
Oscar 19 23 Jul 13:55:38 14:00:20 38° 72° (ENE) 14:05:02 437.125 CW, 437.150 USB
JAS-1B 23 Jul 14:04:57 14:10:53 21° 59° (ENE) 14:17:19 435.800 - 435.900 CW/SSB
RS-15 23 Jul 14:19:04 14:29:46 51° 110° (ESE) 14:40:08 29.354 - 29.394 USB, Beacon 29.352 USB
Oscar 16 23 Jul 14:22:25 14:27:32 80° 76° (ENE) 14:32:39 437.025 USB, Beacon 2401.1428
ITAMSAT 1 23 Jul 14:30:41 14:35:30 39° 72° (ENE) 14:40:19 435.822 SSB
Gurwin Techsat 1B 23 Jul 14:37:29 14:40:50 17° 67° (ENE) 14:44:10 435.225 FM
AO-27 23 Jul 14:47:51 14:52:59 61° 74° (ENE) 14:58:09 436.795 MHz FM
Uribyol 2 23 Jul 14:51:20 14:56:31 70° 75° (ENE) 15:01:42 436.500 FM
AO-Echo 23 Jul 14:59:55 15:05:08 82° 76° (ENE) 15:10:28 ?
SO-50 23 Jul 15:10:18 15:14:21 34° 303° (WNW) 15:18:28 436.795 FM
Oscar 19 23 Jul 15:36:15 15:39:44 18° 265° (W) 15:43:13 437.125 CW, 437.150 USB
KITSAT 1 23 Jul 15:39:14 15:41:35 11° 41° (NE) 15:43:56 435.175 FM
JAS-1B 23 Jul 15:52:02 16:00:04 79° 257° (WSW) 16:09:33 435.800 - 435.900 CW/SSB
TMSAT-1 23 Jul 15:54:39 15:59:56 76° 76° (ENE) 16:05:14 436.925 FM
AO-7 23 Jul 16:02:46 16:09:47 31° 63° (ENE) 16:16:49 29.400 - 29.500 MHz
UOSAT-12 23 Jul 16:04:39 16:09:02 52° 114° (ESE) 16:13:33 437.025 FM, 437.400 FM
ITAMSAT 1 23 Jul 16:11:25 16:15:03 19° 265° (W) 16:18:41 435.822 SSB
Gurwin Techsat 1B 23 Jul 16:15:17 16:20:21 47° 260° (W) 16:25:28 435.225 FM
AO-40 23 Jul 16:27:38 16:28:32 10° 198° (SSW) 16:29:23 Beacon 2401.320
AO-27 23 Jul 16:31:01 16:32:47 12° 267° (W) 16:34:34 436.795 MHz FM
RS-15 23 Jul 16:32:00 16:42:11 40° 308° (NW) 16:52:13 29.354 - 29.394 USB, Beacon 29.352 USB
Uosat F 23 Jul 16:51:56 16:56:53 61° 74° (ENE) 17:01:52 435.120 FM
OPAL 23 Jul 17:27:22 17:32:25 71° 104° (ESE) 17:37:31 ?
JAS-2 23 Jul 17:27:26 17:30:57 14° 61° (ENE) 17:34:25 435.800 - 435.900 CW/SSB, 435.910 FM
KITSAT 1 23 Jul 17:30:43 17:38:42 61° 61° (ENE) 17:46:37 435.175 FM
UOSAT-12 23 Jul 17:46:56 17:49:29 15° 309° (NW) 17:52:04 437.025 FM, 437.400 FM
JAS-1B 23 Jul 17:49:29 17:52:01 12° 275° (W) 17:54:40 435.800 - 435.900 CW/SSB
AO-7 23 Jul 17:54:10 18:02:09 49° 258° (WSW) 18:10:12 29.400 - 29.500 MHz
Hamsat 23 Jul 18:24:58 18:28:43 34° 74° (ENE) 18:32:30 145.90 MHz
Uosat F 23 Jul 18:34:36 18:35:57 11° 267° (W) 18:37:19 435.120 FM
Saudisat 1A 23 Jul 18:39:45 18:43:38 29° 57° (ENE) 18:47:28 436.775 MHz
Oscar 10/S400 23 Jul 18:45:30 19:03:49 28° 148° (SSE) 19:20:40 145.825 - 145.975 CW/USB, Beacon 145.810 USB
JAS-2 23 Jul 19:07:02 19:14:53 82° 76° (ENE) 19:22:36 435.800 - 435.900 CW/SSB, 435.910 FM
OPAL 23 Jul 19:09:30 19:10:41 11° 297° (WNW) 19:11:52 ?
KITSAT 1 23 Jul 19:27:30 19:33:25 23° 256° (WSW) 19:39:20 435.175 FM
STRAND 1 23 Jul 19:41:06 19:45:41 33° 98° (E) 19:50:13 ?
SO-67 23 Jul 19:47:18 19:50:35 43° 76° (ENE) 19:53:54 435.3500 MHz FM
Hamsat 23 Jul 20:02:38 20:04:45 14° 266° (W) 20:06:52 145.90 MHz
Saudisat 1A 23 Jul 20:19:47 20:22:59 20° 250° (WSW) 20:26:09 436.775 MHz
JAS-2 23 Jul 20:55:55 21:00:20 16° 268° (W) 21:04:44 435.800 - 435.900 CW/SSB, 435.910 FM
HO-68 23 Jul 21:14:34 21:21:13 43° 69° (ENE) 21:27:52 435.675 MHz FM
STRAND 1 23 Jul 21:20:45 21:24:36 22° 291° (WNW) 21:28:27 ?
MaSat-1 23 Jul 22:10:51 22:13:00 15° 100° (E) 22:15:19 437.345 MHz
Oscar 11 23 Jul 22:39:59 22:44:17 87° 77° (ENE) 22:48:37 145.825 FM, Beacon 2401.500 USB
FUNcube-1 23 Jul 22:45:36 22:49:31 32° 73° (ENE) 22:53:23 145.950 - 145.970 MHz USB
HO-68 23 Jul 23:02:54 23:08:55 29° 262° (W) 23:14:58 435.675 MHz FM
RS-15 23 Jul 23:27:01 23:36:54 36° 51° (NE) 23:47:02 29.354 - 29.394 USB, Beacon 29.352 USB
Lituanica SAT-1 23 Jul 23:43:43 23:45:37 28° 131° (SE) 23:47:31 437.275 MHz beacon
SO-50 23 Jul 23:46:31 23:51:08 46° 59° (ENE) 23:55:46 436.795 FM
MaSat-1 23 Jul 23:46:42 23:49:54 27° 300° (WNW) 23:53:36 437.345 MHz
FUNcube-1 24 Jul 00:23:07 00:25:54 16° 265° (W) 00:28:40 145.950 - 145.970 MHz USB
UOSAT-12 24 Jul 00:41:31 00:43:21 12° 49° (NE) 00:45:10 437.025 FM, 437.400 FM
ISS 24 Jul 01:18:23 01:21:36 48° 131° (SE) 01:24:50 145.800 FM
SO-50 24 Jul 01:28:37 01:31:17 15° 252° (WSW) 01:33:59 436.795 FM
Sapphire 24 Jul 01:31:26 01:35:25 21° 106° (ESE) 01:39:26 437.095 MHz 1200 baud AX-25 AFSK
RS-15 24 Jul 01:38:49 01:49:37 59° 249° (WSW) 02:00:53 29.354 - 29.394 USB, Beacon 29.352 USB
PCSat 24 Jul 02:04:02 02:09:13 51° 110° (ESE) 02:14:27 145.825 MHz
Oscar 19 24 Jul 02:13:18 02:17:14 22° 96° (E) 02:21:09 437.125 CW, 437.150 USB
UOSAT-12 24 Jul 02:19:15 02:23:56 68° 245° (WSW) 02:28:32 437.025 FM, 437.400 FM
Oscar 16 24 Jul 02:39:50 02:44:46 44° 100° (E) 02:49:40 437.025 USB, Beacon 2401.1428
ITAMSAT 1 24 Jul 02:49:46 02:53:44 22° 96° (E) 02:57:40 435.822 SSB
ISS 24 Jul 02:56:40 02:58:31 14° 326° (NW) 03:00:24 145.800 FM
AO-27 24 Jul 03:06:51 03:11:33 34° 98° (E) 03:16:13 436.795 MHz FM
Uribyol 2 24 Jul 03:09:59 03:14:47 39° 99° (E) 03:19:34 436.500 FM
